time_stamp(utc),avg(mph),gust(mph),direction(deg),12m_air_temp(f),sonic_u(cm/s),sonic_v(cm/s),sonic_w(cm/s),pressure,2m_air_temp(f),pyranometer(W/m^2)
"2022-01-09 00:00:18+00",7.2,7.2,,31.2,-127,-284,-7,1035.86,28,0
"2022-01-09 00:05:18+00",6.9,7.9,,,-154,-265,-3,1035.88,27.7,0
"2022-01-09 00:10:18+00",8.3,9.3,,,-154,-325,-7,1035.98,27.4,0
"2022-01-09 00:15:18+00",6.9,7.9,,,-147,-276,-1,1035.82,27.3,0
"2022-01-09 00:20:18+00",8.0,8.0,,30.4,-127,-318,-6,1035.88,27.5,0
"2022-01-09 00:25:18+00",7.9,8.9,,30.4,-111,-318,-7,1035.76,27.7,0
"2022-01-09 00:30:18+00",8.0,9.0,,30.5,-108,-326,-6,1035.77,27.8,0
"2022-01-09 00:35:18+00",8.3,9.3,,,-130,-333,-6,1035.81,27.7,0
"2022-01-09 00:40:18+00",8.3,9.3,,,-97,-338,-12,1035.76,27.6,0
"2022-01-09 00:45:18+00",9.0,10.0,,30.1,-118,-364,-9,1035.79,27.5,0
"2022-01-09 00:50:18+00",8.6,9.6,,30.3,-136,-340,-8,1035.79,27.4,0
"2022-01-09 00:55:18+00",8.6,9.6,,30.2,-137,-346,-7,1035.92,27.3,0
"2022-01-09 01:00:18+00",10.0,12.0,,,-307,-307,6,1035.85,27.6,0
"2022-01-09 01:05:18+00",8.8,9.8,,,-348,-226,13,1035.78,27.7,0
"2022-01-09 01:10:18+00",9.9,10.9,,29.3,-403,-253,15,1035.9,27.6,0
"2022-01-09 01:15:18+00",10.6,12.6,,29.2,-392,-290,13,1035.87,27.5,0
"2022-01-09 01:20:18+00",10.2,13.2,,29.2,-371,-276,11,1035.69,27.6,0
"2022-01-09 01:25:18+00",10.7,11.7,,29.2,-401,-284,14,1035.65,27.6,0
"2022-01-09 01:30:18+00",9.5,10.5,,29,-337,-254,9,1035.39,27.6,0
"2022-01-09 01:35:18+00",8.2,9.2,,,-274,-229,5,1035.41,27.5,0
"2022-01-09 01:40:18+00",7.5,9.5,,28.8,-294,-198,9,1035.35,27.3,0
"2022-01-09 01:45:18+00",8.0,10.0,,28.7,-306,-208,14,1035.27,27.2,0
"2022-01-09 01:50:18+00",9.5,10.5,,28.8,-397,-212,15,1035.3,27.1,0
"2022-01-09 01:55:18+00",8.6,10.6,,,-361,-188,8,1035.25,27.1,0
"2022-01-09 02:00:18+00",9.6,10.6,,,-391,-186,12,1035.15,27,0
"2022-01-09 02:05:18+00",9.8,10.8,,28.4,-390,-170,6,1035.09,26.8,0
"2022-01-09 02:10:18+00",9.1,11.1,,,-367,-161,12,1034.98,26.7,0
"2022-01-09 02:15:18+00",8.8,9.8,,28.1,-356,-168,11,1034.91,26.6,0
"2022-01-09 02:20:18+00",8.1,9.1,,,-329,-207,10,1034.81,26.5,0
"2022-01-09 02:25:18+00",8.5,9.5,,28.2,-342,-165,13,1034.86,26.4,0
"2022-01-09 02:30:18+00",8.4,10.4,,,-340,-169,23,1034.63,26.3,0
"2022-01-09 02:35:18+00",7.2,8.2,,28.2,-306,-180,8,1034.6,26.3,0
"2022-01-09 02:40:18+00",7.7,8.7,,28.2,-318,-188,8,1034.53,26.3,0
"2022-01-09 02:45:18+00",6.8,7.8,,28.2,-268,-168,8,1034.33,26.2,0
"2022-01-09 02:50:18+00",7.3,8.3,,28.4,-231,-211,2,1034.2,26.2,0
"2022-01-09 02:55:18+00",7.1,8.1,,,-225,-200,3,1034.1,26.3,0
"2022-01-09 03:00:18+00",6.8,7.8,,28.8,-177,-252,-4,1033.84,26.4,0
"2022-01-09 03:05:18+00",8.1,9.1,,28.9,-149,-316,-5,1033.71,26.4,0
"2022-01-09 03:10:18+00",7.7,8.7,,29,-230,-285,-1,1033.65,26.3,0
"2022-01-09 03:15:18+00",8.4,8.4,,29.1,-249,-255,3,1033.56,26.4,0
"2022-01-09 03:20:18+00",6.3,7.3,,29.2,-169,-233,1,1033.42,26.5,0
"2022-01-09 03:25:18+00",6.5,7.5,,29.3,-90,-259,-6,1033.13,26.7,0
"2022-01-09 03:30:18+00",5.6,6.6,,,-28,-229,-2,1032.83,27.2,0
"2022-01-09 03:35:18+00",5.9,6.9,,,-65,-239,-2,1032.77,27.2,0
"2022-01-09 03:40:18+00",3.3,4.3,,28.8,-17,-127,4,1032.9,27,0
"2022-01-09 03:45:18+00",6.2,6.2,,28.7,-64,-248,-7,1032.85,26.7,0
"2022-01-09 03:50:18+00",5.9,6.9,,29.2,-81,-236,-7,1032.73,27.2,0
"2022-01-09 03:55:18+00",6.1,7.1,,,-33,-259,0,1032.61,27.6,0
"2022-01-09 04:00:18+00",6.4,7.4,,29.8,-40,-274,-10,1032.55,27.9,0
"2022-01-09 04:05:18+00",7.0,8.0,,30.3,-73,-285,-3,1032.52,28.2,0
"2022-01-09 04:10:18+00",7.0,7.0,,30.2,-185,-258,9,1032.78,28.1,0
"2022-01-09 04:15:18+00",8.5,9.5,,30.9,-195,-318,0,1032.81,28,0
"2022-01-09 04:20:18+00",9.1,10.1,,,-245,-340,2,1032.81,28.3,0
"2022-01-09 04:25:18+00",9.2,11.2,,,-282,-293,3,1032.78,28.7,0
"2022-01-09 04:30:18+00",10.8,11.8,,31.5,-348,-308,4,1032.72,28.9,0
"2022-01-09 04:35:18+00",9.1,10.1,,,-383,-107,14,1032.85,29.1,0
"2022-01-09 04:40:18+00",9.3,10.3,,,-400,-63,14,1032.88,29,0
"2022-01-09 04:45:18+00",9.8,10.8,,30.2,-442,0,15,1033.44,28.7,0
"2022-01-09 04:50:18+00",10.0,11.0,,30,-445,77,19,1033.77,28.7,0
"2022-01-09 04:55:18+00",11.5,12.5,,,-504,78,15,1034.01,28.8,0
"2022-01-09 05:00:18+00",13.3,14.3,,30,-592,132,29,1033.97,29,0
"2022-01-09 05:05:18+00",12.6,13.6,,29.4,-565,107,31,1034.25,28.9,0
"2022-01-09 05:10:18+00",12.0,14.0,,29.1,-533,36,12,1034.03,28.8,0
"2022-01-09 05:15:18+00",10.6,11.6,,,-473,-19,10,1033.38,28.6,0
"2022-01-09 05:20:18+00",10.0,11.0,,,-447,4,18,1033.46,28.2,0
"2022-01-09 05:25:18+00",9.2,10.2,,28.2,-408,-22,11,1033.23,27.9,0
"2022-01-09 05:30:18+00",7.5,7.5,,,-310,-79,7,1032.94,27.6,0
"2022-01-09 05:35:18+00",7.0,8.0,,,-278,-106,11,1032.97,27.4,0
"2022-01-09 05:40:18+00",7.6,8.6,,28.6,-261,-214,6,1032.64,27.1,0
"2022-01-09 05:45:18+00",7.8,9.8,,29.3,-218,-273,-1,1032.37,27.3,0
"2022-01-09 05:50:18+00",8.5,10.5,,29.7,-240,-294,9,1032.23,27.8,0
"2022-01-09 05:55:18+00",8.6,9.6,,,-254,-293,1,1032.13,28.1,0
"2022-01-09 06:00:18+00",9.4,10.4,,29.8,-277,-306,1,1031.98,28.3,0
"2022-01-09 06:05:18+00",8.4,9.4,,,-246,-287,5,1031.89,28.4,0
"2022-01-09 06:10:18+00",8.7,10.7,,30.1,-283,-259,5,1031.89,28.5,0
"2022-01-09 06:15:18+00",8.7,10.7,,,-282,-250,2,1031.89,28.6,0
"2022-01-09 06:20:18+00",8.8,9.8,,,-352,-221,19,1032.06,28.8,0
"2022-01-09 06:25:18+00",9.5,10.5,,,-404,-211,10,1032.04,28.8,0
"2022-01-09 06:30:18+00",9.8,11.8,,,-412,-243,15,1032.07,29,0
"2022-01-09 06:35:18+00",10.8,11.8,,31.4,-450,-127,11,1031.93,29.2,0
"2022-01-09 06:40:18+00",10.6,12.6,,31,-441,-105,12,1032.12,29.4,0
"2022-01-09 06:45:18+00",9.8,10.8,,,-421,-77,14,1032.14,29.4,0
"2022-01-09 06:50:18+00",10.1,12.1,,30.4,-423,-80,4,1032.05,29.4,0
"2022-01-09 06:55:18+00",10.0,11.0,,30.4,-443,-65,10,1032.1,29.3,0
"2022-01-09 07:00:18+00",10.8,11.8,,,-462,-100,4,1032.09,29.3,0
"2022-01-09 07:05:18+00",10.3,12.3,,,-432,-105,10,1032.25,29.3,0
"2022-01-09 07:10:18+00",9.2,11.2,,,-382,-126,5,1032.38,29.2,0
"2022-01-09 07:15:18+00",11.1,12.1,,30.5,-456,-140,8,1032.33,29.2,0
"2022-01-09 07:20:18+00",9.8,10.8,,,-433,-70,8,1032.19,29.2,0
"2022-01-09 07:25:18+00",11.0,12.0,,30.4,-469,-95,11,1032.24,29.3,0
"2022-01-09 07:30:18+00",11.0,13.0,,,-457,-159,14,1032.15,29.3,0
"2022-01-09 07:35:18+00",12.6,14.6,,30.6,-511,-211,46,1032.18,29.3,0
"2022-01-09 07:40:18+00",11.4,13.4,,30.7,-469,-209,14,1032.06,29.4,0
"2022-01-09 07:45:18+00",11.3,13.3,,,-479,-246,10,1031.8,29.5,0
"2022-01-09 07:50:18+00",11.8,12.8,,30.9,-498,-252,2,1031.81,29.5,0
"2022-01-09 07:55:18+00",10.9,11.9,,30.9,-446,-270,19,1031.61,29.6,0
"2022-01-09 08:00:18+00",11.8,13.8,,30.9,-493,-285,26,1031.54,29.7,0
"2022-01-09 08:05:18+00",11.9,14.9,,30.9,-468,-304,-1,1031.28,29.7,0
"2022-01-09 08:10:18+00",10.0,11.0,,,-403,-256,14,1031.16,29.7,0
"2022-01-09 08:15:18+00",10.0,12.0,,30.9,-403,-256,11,1031.11,29.7,0
"2022-01-09 08:20:18+00",10.2,12.2,,,-393,-268,7,1030.78,29.7,0
"2022-01-09 08:25:18+00",9.9,12.9,,,-365,-272,12,1030.6,29.6,0
"2022-01-09 08:30:18+00",9.6,10.6,,31.1,-393,-238,11,1030.66,29.7,0
"2022-01-09 08:35:18+00",9.0,10.0,,31,-357,-228,5,1030.59,29.6,0
"2022-01-09 08:40:18+00",9.5,11.5,,,-353,-256,15,1030.49,29.6,0
"2022-01-09 08:45:18+00",9.4,10.4,,,-353,-251,21,1030.48,29.7,0
"2022-01-09 08:50:18+00",9.4,10.4,,,-348,-254,12,1030.37,29.8,0
"2022-01-09 08:55:18+00",9.2,11.2,,,-348,-251,11,1030.29,29.7,0
"2022-01-09 09:00:18+00",8.6,10.6,,,-308,-226,12,1030.19,29.7,0
"2022-01-09 09:05:18+00",8.6,9.6,,31.2,-311,-236,12,1030.15,29.6,0
"2022-01-09 09:10:18+00",8.0,9.0,,31.3,-310,-211,12,1030.09,29.5,0
"2022-01-09 09:15:18+00",8.4,9.4,,31.3,-276,-237,7,1029.9,29.5,0
"2022-01-09 09:20:18+00",8.6,10.6,,31.6,-263,-264,0,1029.65,29.6,0
"2022-01-09 09:25:18+00",7.1,8.1,,31.7,-207,-232,5,1029.53,29.8,0
"2022-01-09 09:30:18+00",8.2,10.2,,,-238,-270,1,1029.41,30.1,0
"2022-01-09 09:35:18+00",9.0,10.0,,,-278,-276,0,1029.29,30.1,0
"2022-01-09 09:40:18+00",9.2,11.2,,32.1,-269,-279,1,1029.01,30.2,0
"2022-01-09 09:45:18+00",8.2,9.2,,32.1,-242,-263,5,1028.89,30.3,0
"2022-01-09 09:50:18+00",8.1,9.1,,,-242,-259,0,1028.87,30.3,0
"2022-01-09 09:55:18+00",7.1,8.1,,32.3,-231,-200,1,1028.85,30.3,0
"2022-01-09 10:00:18+00",8.2,9.2,,,-270,-232,1,1028.89,30.1,0
"2022-01-09 10:05:18+00",8.3,9.3,,32.5,-270,-236,5,1028.75,30,0
"2022-01-09 10:10:18+00",7.9,8.9,,,-247,-229,-1,1028.71,30,0
"2022-01-09 10:15:18+00",7.3,8.3,,32.5,-263,-190,6,1028.75,29.8,0
"2022-01-09 10:20:18+00",7.2,7.2,,,-239,-201,1,1028.67,29.7,0
"2022-01-09 10:25:18+00",6.7,7.7,,32.5,-277,-143,4,1028.7,29.5,0
"2022-01-09 10:30:18+00",7.5,8.5,,,-324,-175,4,1028.59,29.3,0
"2022-01-09 10:35:18+00",7.8,8.8,,32.1,-286,-205,3,1028.4,29.2,0
"2022-01-09 10:40:18+00",7.7,7.7,,,-263,-210,5,1028.18,29.2,0
"2022-01-09 10:45:18+00",7.8,8.8,,,-270,-210,-2,1028.18,29.3,0
"2022-01-09 10:50:18+00",7.0,7.0,,,-302,-158,4,1028.29,29.3,0
"2022-01-09 10:55:18+00",7.7,8.7,,,-301,-196,6,1028.1,29.1,0
"2022-01-09 11:00:18+00",7.9,8.9,,31.4,-251,-237,-3,1027.86,29,0
"2022-01-09 11:05:18+00",8.8,9.8,,31.7,-286,-255,4,1027.67,29.4,0
"2022-01-09 11:10:18+00",9.3,10.3,,,-300,-271,1,1027.59,29.9,0
"2022-01-09 11:15:18+00",8.7,9.7,,,-295,-244,1,1027.57,30.1,0
"2022-01-09 11:20:18+00",8.2,9.2,,31.9,-319,-216,7,1027.6,30.1,0
"2022-01-09 11:25:18+00",9.1,10.1,,,-293,-258,1,1027.6,30,0
"2022-01-09 11:30:18+00",9.2,10.2,,,-319,-250,7,1027.57,30.2,0
"2022-01-09 11:35:18+00",8.5,9.5,,,-274,-252,3,1027.51,30.4,0
"2022-01-09 11:40:18+00",8.2,9.2,,32.4,-249,-254,3,1027.19,30.6,0
"2022-01-09 11:45:18+00",8.3,9.3,,,-258,-250,-2,1027.06,30.6,0
"2022-01-09 11:50:18+00",8.4,9.4,,,-258,-253,-4,1027.1,30.7,0
"2022-01-09 11:55:18+00",7.2,8.2,,,-221,-215,1,1026.95,30.7,0
"2022-01-09 12:00:18+00",6.7,7.7,,,-203,-201,-2,1026.81,30.7,0
"2022-01-09 12:05:18+00",6.0,7.0,,,-67,-240,-7,1026.13,30.7,0
"2022-01-09 12:10:18+00",6.5,7.5,,33.3,-76,-264,-6,1026.1,31,0
"2022-01-09 12:15:18+00",8.8,9.8,,,-120,-356,-2,1026.06,31.6,0
"2022-01-09 12:20:18+00",10.6,11.6,,,-285,-392,3,1026.39,31.9,0
"2022-01-09 12:25:18+00",13.0,15.0,,,-296,-497,-5,1026.06,33.1,0
"2022-01-09 12:30:18+00",13.4,15.4,,,-278,-534,-2,1026.17,34.5,0
"2022-01-09 12:35:18+00",12.6,14.6,,36.7,-261,-504,2,1026.19,35.1,0
"2022-01-09 12:40:18+00",11.9,13.9,,,-212,-493,-2,1025.88,35.4,0
"2022-01-09 12:45:18+00",11.4,13.4,,,-241,-459,4,1025.91,35.6,0
"2022-01-09 12:50:18+00",11.7,12.7,,37.1,-252,-469,-1,1025.99,35.7,0
"2022-01-09 12:55:18+00",11.6,12.6,,,-257,-455,-1,1025.98,35.9,0
"2022-01-09 13:00:18+00",11.3,12.3,,37.3,-256,-450,0,1026.01,36.1,0
"2022-01-09 13:05:18+00",11.7,12.7,,,-262,-459,-3,1025.94,36.1,0
"2022-01-09 13:10:18+00",10.6,11.6,,,-245,-411,3,1025.92,36.2,0
"2022-01-09 13:15:18+00",11.1,13.1,,,-246,-443,5,1025.82,36.3,0
"2022-01-09 13:20:18+00",12.1,15.1,,,-304,-481,4,1025.88,36.6,23.4
"2022-01-09 13:25:18+00",14.7,16.7,,,-376,-553,2,1025.69,37.5,46.6
"2022-01-09 13:30:18+00",15.7,18.7,,,-415,-581,16,1025.71,38.3,54.6
"2022-01-09 13:35:18+00",13.9,16.9,,39,-388,-515,-1,1025.7,38.7,66.8
"2022-01-09 13:40:18+00",14.2,17.2,,,-421,-494,16,1025.92,39.2,71.3
"2022-01-09 13:45:18+00",14.2,16.2,,,-430,-474,-2,1025.99,39.4,37.8
"2022-01-09 13:50:18+00",13.2,16.2,,,-336,-502,19,1025.6,39.3,69.8
"2022-01-09 13:55:18+00",16.4,18.4,,,-321,-666,4,1025.35,39.6,81.1
"2022-01-09 14:00:18+00",15.2,18.2,,,-372,-594,2,1025.44,39.9,80.8
"2022-01-09 14:05:18+00",16.6,19.6,,,-330,-668,0,1025.42,40.2,86.8
"2022-01-09 14:10:18+00",15.1,17.1,,,-411,-565,24,1025.28,40.5,108.8
"2022-01-09 14:15:18+00",14.9,16.9,,,-423,-542,13,1025.24,40.7,118.5
"2022-01-09 14:20:18+00",14.3,16.3,,,-409,-506,23,1025.33,41,129.2
"2022-01-09 14:25:18+00",17.0,18.0,,40.5,-532,-530,-3,1025.21,41.3,147.2
"2022-01-09 14:30:18+00",19.4,23.4,,41,-550,-701,-15,1025.11,41.4,143.2
"2022-01-09 14:35:18+00",19.7,22.7,,,-582,-674,18,1025.16,41.7,142.6
"2022-01-09 14:40:18+00",23.4,28.4,,41.4,-728,-771,16,1025.18,41.7,151.2
"2022-01-09 14:45:18+00",22.5,24.5,,,-692,-706,28,1025.29,41.8,160.9
"2022-01-09 14:50:18+00",23.5,26.5,,41.4,-725,-722,10,1025.34,41.8,157.4
"2022-01-09 14:55:18+00",20.3,22.3,,41,-623,-640,17,1025.27,41.4,57.7
"2022-01-09 15:00:18+00",21.2,23.2,,,-660,-659,3,1025.29,41,99.8
"2022-01-09 15:05:18+00",19.2,23.2,,,-578,-609,-2,1025.19,40.7,23.9
"2022-01-09 15:10:18+00",20.5,26.5,,,-630,-654,8,1025.19,40.4,53.8
"2022-01-09 15:15:18+00",18.9,22.9,,,-582,-627,31,1025.25,40.6,60.7
"2022-01-09 15:20:18+00",21.6,25.6,,,-627,-732,16,1025.15,40.6,62.7
"2022-01-09 15:25:18+00",19.4,24.4,,40.9,-595,-608,46,1025.17,40.7,66.9
"2022-01-09 15:30:18+00",20.8,22.8,,,-605,-722,14,1025.08,40.7,34.4
"2022-01-09 15:35:18+00",20.8,24.8,,,-633,-691,30,1024.97,40.5,18.3
"2022-01-09 15:40:18+00",20.2,23.2,,40.7,-573,-728,4,1024.81,40.4,3.3
"2022-01-09 15:45:18+00",19.4,24.4,,,-570,-661,23,1024.64,40.2,1.3
"2022-01-09 15:50:18+00",18.0,20.0,,40.5,-541,-614,22,1024.57,40.1,0
"2022-01-09 15:55:18+00",15.8,17.8,,,-439,-592,26,1024.34,40,10.4
"2022-01-09 16:00:18+00",18.3,22.3,,40.6,-551,-625,22,1024.13,40.1,0.9
"2022-01-09 16:05:18+00",17.4,20.4,,,-508,-611,19,1023.95,40.1,0
"2022-01-09 16:10:18+00",22.0,26.0,,,-691,-691,2,1023.88,40.2,0.8
"2022-01-09 16:15:18+00",18.8,22.8,,40.6,-604,-584,38,1023.85,40.1,0
"2022-01-09 16:20:18+00",17.9,19.9,,40.6,-551,-602,24,1023.56,40.1,0.4
"2022-01-09 16:25:18+00",16.3,19.3,,,-498,-538,24,1023.27,40.1,10.5
"2022-01-09 16:30:18+00",16.8,19.8,,,-567,-482,13,1023.23,40.2,4
"2022-01-09 16:35:18+00",16.3,18.3,,,-595,-450,12,1023.21,40.1,0.1
"2022-01-09 16:40:18+00",14.7,16.7,,,-599,-376,1,1023.02,40,1.8
"2022-01-09 16:45:18+00",14.6,16.6,,,-592,-356,29,1022.82,39.9,3
"2022-01-09 16:50:18+00",14.6,17.6,,,-555,-389,19,1022.58,39.7,13.8
"2022-01-09 16:55:18+00",15.4,17.4,,,-543,-425,3,1022.27,39.6,1.4
"2022-01-09 17:00:18+00",13.9,16.9,,,-483,-389,16,1022.11,39.5,7.7
"2022-01-09 17:05:18+00",13.5,16.5,,,-488,-365,24,1022.11,39.6,23.3
"2022-01-09 17:10:18+00",14.1,18.1,,,-535,-391,13,1021.87,39.7,6.4
"2022-01-09 17:15:18+00",14.5,17.5,,,-480,-417,19,1021.64,39.7,4.6
"2022-01-09 17:20:18+00",12.8,14.8,,,-439,-365,24,1021.48,39.8,8.1
"2022-01-09 17:25:18+00",14.5,16.5,,,-449,-462,4,1021.24,40,13.5
"2022-01-09 17:30:18+00",16.0,19.0,,,-474,-549,21,1021,40.2,7
"2022-01-09 17:35:18+00",16.0,22.0,,40.8,-484,-534,30,1020.84,40.4,1.1
"2022-01-09 17:40:18+00",17.2,19.2,,41.1,-513,-575,22,1020.55,40.7,4.4
"2022-01-09 17:45:18+00",17.0,23.0,,,-504,-599,35,1020.45,41,12.6
"2022-01-09 17:50:18+00",18.2,21.2,,,-524,-643,3,1020.2,41.1,1.9
"2022-01-09 17:55:18+00",18.1,21.1,,41.4,-503,-643,0,1020.08,41.1,0
"2022-01-09 18:00:18+00",18.0,21.0,,41.6,-524,-625,33,1019.84,41.2,0.3
"2022-01-09 18:05:18+00",16.6,18.6,,,-490,-566,14,1019.84,41.1,0
"2022-01-09 18:10:18+00",17.0,22.0,,,-516,-526,16,1019.78,41,0
"2022-01-09 18:15:18+00",15.3,16.3,,,-483,-476,9,1019.75,41,0
"2022-01-09 18:20:18+00",14.4,16.4,,,-524,-399,21,1019.8,41,0
"2022-01-09 18:25:18+00",13.2,15.2,,41.1,-523,-345,10,1019.7,41,0.8
"2022-01-09 18:30:18+00",14.4,15.4,,41,-591,-352,6,1019.65,40.9,0.4
"2022-01-09 18:35:18+00",13.5,15.5,,,-569,-318,11,1019.61,40.7,0
"2022-01-09 18:40:18+00",12.2,14.2,,,-511,-299,11,1019.54,40.6,0
"2022-01-09 18:45:18+00",13.0,15.0,,40.7,-530,-301,8,1019.39,40.6,0.1
"2022-01-09 18:50:18+00",13.7,15.7,,,-527,-368,10,1019.35,40.4,0
"2022-01-09 18:55:18+00",13.9,16.9,,,-509,-383,14,1019.2,40.3,0
"2022-01-09 19:00:18+00",13.2,15.2,,,-489,-368,15,1019.17,40.3,0
"2022-01-09 19:05:18+00",12.5,14.5,,40.6,-433,-350,9,1019.14,40.2,0
"2022-01-09 19:10:18+00",11.4,14.4,,40.6,-370,-347,19,1019.04,40.2,0
"2022-01-09 19:15:18+00",10.7,11.7,,40.5,-333,-346,-5,1018.87,40.1,0
"2022-01-09 19:20:18+00",11.5,14.5,,,-374,-352,-5,1018.78,40.1,0
"2022-01-09 19:25:18+00",12.0,14.0,,40.9,-403,-345,13,1018.78,40.2,0
"2022-01-09 19:30:18+00",12.6,14.6,,,-450,-355,-8,1018.61,40.2,0
"2022-01-09 19:35:18+00",11.0,13.0,,,-371,-315,4,1018.43,40.2,0
"2022-01-09 19:40:18+00",11.7,13.7,,40.7,-350,-383,10,1018.29,40.2,0
"2022-01-09 19:45:18+00",11.3,13.3,,,-343,-343,20,1018.27,40.1,0
"2022-01-09 19:50:18+00",12.3,15.3,,,-403,-371,14,1018.22,40.1,0
"2022-01-09 19:55:18+00",12.4,14.4,,40.6,-385,-385,11,1018.09,40,0
"2022-01-09 20:00:18+00",13.1,15.1,,,-409,-395,24,1018.07,40,0
"2022-01-09 20:05:18+00",12.9,14.9,,,-418,-379,14,1017.91,40.1,0
"2022-01-09 20:10:18+00",13.4,14.4,,,-407,-429,-3,1017.82,40.1,0
"2022-01-09 20:15:18+00",12.6,14.6,,,-390,-406,6,1017.77,40.2,0
"2022-01-09 20:20:18+00",12.1,13.1,,,-380,-367,15,1017.62,40.2,0
"2022-01-09 20:25:18+00",12.4,14.4,,40.8,-374,-411,22,1017.4,40.2,0
"2022-01-09 20:30:18+00",12.7,15.7,,,-369,-432,2,1017.37,40.2,0
"2022-01-09 20:35:18+00",12.9,14.9,,,-371,-443,18,1017.21,40.3,0
"2022-01-09 20:40:18+00",13.8,15.8,,,-407,-461,10,1017.18,40.3,0
"2022-01-09 20:45:18+00",13.2,14.2,,,-387,-434,8,1017.07,40.5,0
"2022-01-09 20:50:18+00",11.6,14.6,,,-381,-337,6,1017.08,40.5,0
"2022-01-09 20:55:18+00",10.2,13.2,,,-351,-293,12,1016.97,40.5,0
"2022-01-09 21:00:18+00",10.7,11.7,,,-379,-298,11,1016.91,40.4,0
"2022-01-09 21:05:18+00",9.7,10.7,,,-351,-267,17,1016.84,40.4,0
"2022-01-09 21:10:18+00",9.5,11.5,,,-352,-257,12,1016.78,40.4,0
"2022-01-09 21:15:18+00",9.9,10.9,,,-378,-253,7,1016.79,40.3,0
"2022-01-09 21:20:18+00",9.9,10.9,,,-373,-267,12,1016.72,40.2,0
"2022-01-09 21:25:18+00",9.7,10.7,,,-370,-258,10,1016.63,40.1,0
"2022-01-09 21:30:18+00",10.3,12.3,,,-379,-287,12,1016.56,40,0
"2022-01-09 21:35:18+00",10.8,11.8,,,-393,-292,-1,1016.55,39.9,0
"2022-01-09 21:40:18+00",10.3,12.3,,,-363,-275,1,1016.45,39.9,0
"2022-01-09 21:45:18+00",9.9,11.9,,,-350,-274,5,1016.45,39.8,0
"2022-01-09 21:50:18+00",9.4,11.4,,,-313,-262,15,1016.37,39.8,0
"2022-01-09 21:55:18+00",9.1,11.1,,,-327,-255,6,1016.33,39.8,0
"2022-01-09 22:00:18+00",9.3,10.3,,,-326,-251,4,1016.45,39.7,0
"2022-01-09 22:05:18+00",7.8,8.8,,,-315,-201,5,1016.51,39.6,0
"2022-01-09 22:10:18+00",6.8,7.8,,,-287,-162,3,1016.44,39.5,0
"2022-01-09 22:15:18+00",6.4,7.4,,,-261,-161,-1,1016.34,39.4,0
"2022-01-09 22:20:18+00",6.2,7.2,,,-255,-146,4,1016.34,39.4,0
"2022-01-09 22:25:18+00",6.4,7.4,,,-267,-150,1,1016.33,39.4,0
"2022-01-09 22:30:18+00",7.1,8.1,,,-278,-187,-5,1016.31,39.4,0
"2022-01-09 22:35:18+00",6.6,7.6,,,-252,-168,2,1016.3,39.4,0
"2022-01-09 22:40:18+00",5.5,6.5,,,-207,-134,11,1016.32,39.4,0
"2022-01-09 22:45:18+00",5.9,6.9,,,-241,-139,-3,1016.42,39.4,0
"2022-01-09 22:50:18+00",6.4,7.4,,,-218,-171,0,1016.39,39.4,0
"2022-01-09 22:55:18+00",5.6,6.6,,,-231,-122,9,1016.44,39.4,0
"2022-01-09 23:00:18+00",6.8,7.8,,,-211,-209,-1,1016.31,39.4,0
"2022-01-09 23:05:18+00",7.0,8.0,,,-243,-192,9,1016.39,39.5,0
"2022-01-09 23:10:18+00",8.0,10.0,,,-303,-210,-1,1016.3,39.7,0
"2022-01-09 23:15:18+00",6.0,7.0,,,-231,-88,12,1016.33,39.7,0
"2022-01-09 23:20:18+00",6.3,7.3,,,-232,-171,1,1016.23,39.8,0
"2022-01-09 23:25:18+00",8.0,10.0,,,-277,-200,4,1016.24,40.2,0
"2022-01-09 23:30:18+00",8.2,10.2,,,-322,-137,20,1016.25,40.4,0
"2022-01-09 23:35:18+00",9.1,11.1,,,-364,-162,14,1016.26,40.5,0
"2022-01-09 23:40:18+00",8.8,10.8,,,-360,-158,7,1016.19,40.8,0
"2022-01-09 23:45:18+00",7.7,8.7,,,-321,-174,4,1016.03,40.9,0
"2022-01-09 23:50:18+00",8.1,9.1,,,-337,-177,-2,1016.12,40.9,0
"2022-01-09 23:55:18+00",7.1,8.1,,,-285,-177,4,1015.98,40.9,0
